RS-30
1 32953U 08025A 11293.79056131 .00000010 00000-0 00000 0 0 1863
2 32953 082.4981 084.6274 0019593 111.8585 248.4582 12.43016025154695
TACSAT-3
1 35001U 09028A 11292.95472701 .00056865 00000-0 81581-3 0 07318
2 35001 040.4515 132.5781 0015119 052.7420 307.4777 15.55089473136466
PHARMSAT
1 35002U 09028B 11293.56808109 .00042960 00000-0 65628-3 0 6798
2 35002 040.4680 127.7195 0018374 069.0059 291.2752 15.53402527136572
HAWKSAT1
1 35003U 09028C 11278.76493853 .05638703 71200-5 11831-2 0 08211
2 35003 040.4370 161.0594 0006849 275.9761 084.3784 16.29831142134897
CP6
1 35004U 09028D 11247.64656856 .16152067 73217-5 10011-2 0 7842
2 35004 040.4403 342.9642 0002956 038.0069 322.2231 16.41039951130139
METEOR-M
1 35865U 09049A 11293.76389016 .00000010 00000-0 24355-4 0 8291
2 35865 098.6913 347.1674 0003259 037.5508 322.5903 14.21842586108435
RS-38
1 35869U 09049E 11293.74822055 .00000079 00000-0 55486-4 0 8090
2 35869 098.6888 347.1793 0005272 035.3593 324.7938 14.22026513108447
ARISSAT1
1 37772U 98067CK 11293.77958782 .00117600 00000-0 98348-3 0 2370
2 37772 051.6376 246.8092 0007741 008.0200 066.5222 15.69099575 12121
SRMSAT
1 37839U 11058B 11292.62968901 .00000619 00000-0 19019-3 0 104
2 37839 019.9628 021.5381 0019280 083.5148 276.7407 14.11974518 1056
JUGNU
1 37841U 11058D 11293.55958539 .00000264 00000-0 00000 0 0 96
2 37841 019.9730 016.0842 0011653 070.6290 289.5438 14.10074334 1181
